StationID,Date,MaxTemp,MinTemp,Precipitation,Snowfall,SnowDepth
"MX000002069","1949-01-01",59.00,28.40,55.00,,
"MX000002069","1949-01-02",53.60,46.40,0.00,,
"MX000002069","1949-01-03",44.60,,0.00,,
"MX000002069","1949-01-04",43.70,29.30,0.00,,
"MX000002069","1949-01-05",55.40,28.40,0.00,,
"MX000002069","1949-01-06",59.00,35.60,0.00,,
"MX000002069","1949-01-07",68.00,40.10,0.00,,
"MX000002069","1949-01-08",61.70,30.20,0.00,,
"MX000002069","1949-01-09",48.20,,140.00,,
"MX000002069","1949-01-10",46.40,34.70,80.00,,
"MX000002069","1949-01-11",61.70,,100.00,,
"MX000002069","1949-01-12",53.60,35.60,460.00,,
"MX000002069","1949-01-13",47.30,35.60,70.00,,
"MX000002069","1949-01-14",50.00,35.60,15.00,,
"MX000002069","1949-01-15",53.60,37.40,0.00,,
"MX000002069","1949-01-16",50.00,29.30,0.00,,
"MX000002069","1949-01-17",51.80,,0.00,,
"MX000002069","1949-01-18",53.60,30.20,0.00,,
"MX000002069","1949-01-19",53.60,35.60,0.00,,
"MX000002069","1949-01-20",55.40,37.40,30.00,,
"MX000002069","1949-01-21",59.00,,25.00,,
"MX000002069","1949-01-22",50.00,,60.00,,
"MX000002069","1949-01-23",49.10,,35.00,,
"MX000002069","1949-01-24",44.60,,100.00,,
"MX000002069","1949-01-25",46.40,,0.00,,
"MX000002069","1949-01-26",53.60,,0.00,,
"MX000002069","1949-01-27",55.40,,0.00,,
"MX000002069","1949-01-28",55.40,,0.00,,
"MX000002069","1949-01-29",51.80,,0.00,,
"MX000002069","1949-01-30",57.20,,0.00,,
"MX000002069","1949-01-31",55.40,,0.00,,
"MX000002069","1949-02-01",57.20,,22.00,,
"MX000002069","1949-02-02",50.00,,15.00,,
"MX000002069","1949-02-03",52.70,,14.00,,
"MX000002069","1949-02-04",51.80,,0.00,,
"MX000002069","1949-02-05",53.60,,0.00,,
"MX000002069","1949-02-06",57.20,,0.00,,
"MX000002069","1949-02-07",58.10,,90.00,,
"MX000002069","1949-02-08",57.20,,0.00,,
"MX000002069","1949-02-09",61.70,,0.00,,
"MX000002069","1949-02-10",75.20,,0.00,,
"MX000002069","1949-02-11",63.50,,37.00,,
"MX000002069","1949-02-12",50.00,,18.00,,
"MX000002069","1949-02-13",50.90,,0.00,,
"MX000002069","1949-02-14",54.50,,0.00,,
"MX000002069","1949-02-15",59.90,,0.00,,
"MX000002069","1949-02-16",68.00,,0.00,,
"MX000002069","1949-02-17",76.10,,0.00,,
"MX000002069","1949-02-18",69.80,,0.00,,
"MX000002069","1949-02-19",62.60,,0.00,,
"MX000002069","1949-02-20",62.60,,0.00,,
"MX000002069","1949-02-21",69.80,,0.00,,
"MX000002069","1949-02-22",77.00,,0.00,,
"MX000002069","1949-02-23",73.40,,0.00,,
"MX000002069","1949-02-24",61.70,,0.00,,
"MX000002069","1949-02-25",62.60,,0.00,,
"MX000002069","1949-02-26",59.00,,50.00,,
"MX000002069","1949-02-27",57.20,,15.00,,
"MX000002069","1949-02-28",59.00,,0.00,,
"MX000002069","1949-03-01",62.60,,0.00,,
"MX000002069","1949-03-02",61.70,,0.00,,
"MX000002069","1949-03-03",66.20,,0.00,,
"MX000002069","1949-03-04",61.70,,20.00,,
"MX000002069","1949-03-05",60.80,,0.00,,
"MX000002069","1949-03-06",67.10,,0.00,,
"MX000002069","1949-03-07",57.20,,0.00,,
"MX000002069","1949-03-08",59.90,,0.00,,
"MX000002069","1949-03-09",68.00,,0.00,,
"MX000002069","1949-03-10",67.10,,0.00,,
"MX000002069","1949-03-11",60.80,,0.00,,
"MX000002069","1949-03-12",61.70,,0.00,,
"MX000002069","1949-03-13",72.50,,0.00,,
"MX000002069","1949-03-14",77.00,,0.00,,
"MX000002069","1949-03-15",74.30,,0.00,,
"MX000002069","1949-03-16",68.90,,0.00,,
"MX000002069","1949-03-17",76.10,,0.00,,
"MX000002069","1949-03-18",73.40,34.70,0.00,,
"MX000002069","1949-03-19",71.60,37.40,15.00,,
"MX000002069","1949-03-20",62.60,47.30,0.00,,
"MX000002069","1949-03-21",69.80,36.50,0.00,,
"MX000002069","1949-03-22",58.10,42.80,27.00,,
"MX000002069","1949-03-23",57.20,46.40,13.00,,
"MX000002069","1949-03-24",55.40,41.90,42.00,,
"MX000002069","1949-03-25",51.80,39.20,0.00,,
"MX000002069","1949-03-26",64.40,37.40,0.00,,
"MX000002069","1949-03-27",71.60,39.20,0.00,,
"MX000002069","1949-03-28",59.00,48.20,25.00,,
"MX000002069","1949-03-29",63.50,40.10,0.00,,
"MX000002069","1949-03-30",61.70,36.50,83.00,,
"MX000002069","1949-03-31",54.50,41.00,0.00,,
"MX000002069","1949-04-01",59.00,44.60,0.00,,
"MX000002069","1949-04-02",54.50,43.70,0.00,,
"MX000002069","1949-04-03",68.00,37.40,0.00,,
"MX000002069","1949-04-04",78.80,39.20,0.00,,
"MX000002069","1949-04-05",80.60,44.60,0.00,,
"MX000002069","1949-04-06",77.00,51.80,0.00,,
"MX000002069","1949-04-07",71.60,49.10,0.00,,
"MX000002069","1949-04-08",69.80,48.20,0.00,,
"MX000002069","1949-04-09",83.30,41.00,0.00,,
"MX000002069","1949-04-10",87.80,41.90,0.00,,
"MX000002069","1949-04-11",87.80,44.60,0.00,,
"MX000002069","1949-04-12",82.40,52.70,0.00,,
"MX000002069","1949-04-13",77.90,43.70,0.00,,
"MX000002069","1949-04-14",68.00,48.20,0.00,,
"MX000002069","1949-04-15",63.50,51.80,0.00,,
"MX000002069","1949-04-16",78.80,42.80,0.00,,
"MX000002069","1949-04-17",75.20,45.50,0.00,,
"MX000002069","1949-04-18",68.00,46.40,0.00,,
"MX000002069","1949-04-19",63.50,50.00,22.00,,
"MX000002069","1949-04-20",84.20,53.60,0.00,,
"MX000002069","1949-04-21",93.20,49.10,0.00,,
"MX000002069","1949-04-22",92.30,50.90,0.00,,
"MX000002069","1949-04-23",86.00,49.10,0.00,,
"MX000002069","1949-04-24",83.30,50.90,0.00,,
"MX000002069","1949-04-25",82.40,52.70,0.00,,
"MX000002069","1949-04-26",71.60,49.10,0.00,,
"MX000002069","1949-04-27",82.40,44.60,0.00,,
"MX000002069","1949-04-28",81.50,51.80,0.00,,
"MX000002069","1949-04-29",70.70,46.40,0.00,,
"MX000002069","1949-04-30",76.10,44.60,0.00,,
"MX000002069","1949-05-01",77.00,44.60,0.00,,
"MX000002069","1949-05-02",77.90,47.30,0.00,,
"MX000002069","1949-05-03",72.50,49.10,0.00,,
"MX000002069","1949-05-04",76.10,42.80,0.00,,
"MX000002069","1949-05-05",89.60,43.70,0.00,,
"MX000002069","1949-05-06",89.60,49.10,0.00,,
"MX000002069","1949-05-07",89.60,47.30,0.00,,
"MX000002069","1949-05-08",84.20,46.40,0.00,,
"MX000002069","1949-05-09",73.40,48.20,0.00,,
"MX000002069","1949-05-10",72.50,43.70,0.00,,
"MX000002069","1949-05-11",79.70,51.80,0.00,,
"MX000002069","1949-05-12",81.50,56.30,0.00,,
"MX000002069","1949-05-13",69.80,54.50,0.00,,
"MX000002069","1949-05-14",66.20,53.60,30.00,,
"MX000002069","1949-05-15",66.20,51.80,0.00,,
"MX000002069","1949-05-16",63.50,50.90,0.00,,
"MX000002069","1949-05-17",61.70,52.70,0.00,,
"MX000002069","1949-05-18",68.00,51.80,0.00,,
"MX000002069","1949-05-19",65.30,51.80,0.00,,
"MX000002069","1949-05-20",74.30,45.50,0.00,,
"MX000002069","1949-05-21",84.20,44.60,0.00,,
"MX000002069","1949-05-22",91.40,47.30,0.00,,
"MX000002069","1949-05-23",97.70,48.20,0.00,,
"MX000002069","1949-05-24",95.00,50.90,0.00,,
"MX000002069","1949-05-25",86.00,51.80,0.00,,
"MX000002069","1949-05-26",87.80,51.80,0.00,,
"MX000002069","1949-05-27",86.00,54.50,0.00,,
"MX000002069","1949-05-28",78.80,53.60,0.00,,
"MX000002069","1949-05-29",75.20,47.30,0.00,,
"MX000002069","1949-05-30",74.30,51.80,0.00,,
"MX000002069","1949-05-31",79.70,52.70,0.00,,
"MX000002069","1949-06-01",78.80,44.60,0.00,,
"MX000002069","1949-06-02",86.90,46.40,0.00,,
"MX000002069","1949-06-03",86.90,49.10,0.00,,
"MX000002069","1949-06-04",90.50,48.20,0.00,,
"MX000002069","1949-06-05",91.40,50.00,0.00,,
"MX000002069","1949-06-06",90.50,50.90,0.00,,
"MX000002069","1949-06-07",91.40,56.30,0.00,,
"MX000002069","1949-06-08",86.90,52.70,0.00,,
"MX000002069","1949-06-09",87.80,50.00,0.00,,
"MX000002069","1949-06-10",94.10,51.80,0.00,,
"MX000002069","1949-06-11",90.50,54.50,0.00,,
"MX000002069","1949-06-12",88.70,54.50,0.00,,
"MX000002069","1949-06-13",85.10,56.30,0.00,,
"MX000002069","1949-06-14",89.60,53.60,0.00,,
"MX000002069","1949-06-15",88.70,55.40,0.00,,
"MX000002069","1949-06-16",88.70,57.20,0.00,,
"MX000002069","1949-06-17",86.00,58.10,0.00,,
"MX000002069","1949-06-18",81.50,58.10,0.00,,
"MX000002069","1949-06-19",84.20,52.70,0.00,,
"MX000002069","1949-06-20",94.10,50.90,0.00,,
"MX000002069","1949-06-21",98.60,58.10,0.00,,
"MX000002069","1949-06-22",98.60,62.60,0.00,,
"MX000002069","1949-06-23",95.90,62.60,0.00,,
"MX000002069","1949-06-24",83.30,58.10,0.00,,
"MX000002069","1949-06-25",83.30,52.70,0.00,,
"MX000002069","1949-06-26",79.70,60.80,0.00,,
"MX000002069","1949-06-27",77.00,62.60,0.00,,
"MX000002069","1949-06-28",78.80,60.80,0.00,,
"MX000002069","1949-06-29",84.20,58.10,0.00,,
"MX000002069","1949-06-30",89.60,53.60,0.00,,
"MX000002069","1949-07-01",91.40,59.90,0.00,,
"MX000002069","1949-07-02",94.10,63.50,0.00,,
"MX000002069","1949-07-03",92.30,59.00,0.00,,
"MX000002069","1949-07-04",86.90,59.00,0.00,,
"MX000002069","1949-07-05",87.80,54.50,0.00,,
"MX000002069","1949-07-06",86.00,51.80,0.00,,
"MX000002069","1949-07-07",86.90,50.00,0.00,,
"MX000002069","1949-07-08",87.80,52.70,0.00,,
"MX000002069","1949-07-09",88.70,50.90,0.00,,
"MX000002069","1949-07-10",88.70,55.40,0.00,,
"MX000002069","1949-07-11",88.70,57.20,0.00,,
"MX000002069","1949-07-12",94.10,55.40,0.00,,
"MX000002069","1949-07-13",95.00,53.60,0.00,,
"MX000002069","1949-07-14",97.70,54.50,0.00,,
"MX000002069","1949-07-15",96.80,57.20,0.00,,
"MX000002069","1949-07-16",95.00,60.80,0.00,,
"MX000002069","1949-07-17",95.90,62.60,0.00,,
"MX000002069","1949-07-18",95.90,61.70,0.00,,
"MX000002069","1949-07-19",94.10,65.30,0.00,,
"MX000002069","1949-07-20",93.20,60.80,0.00,,
"MX000002069","1949-07-21",94.10,59.00,0.00,,
"MX000002069","1949-07-22",93.20,58.10,0.00,,
"MX000002069","1949-07-23",91.40,55.40,0.00,,
"MX000002069","1949-07-24",89.60,55.40,0.00,,
"MX000002069","1949-07-25",89.60,53.60,0.00,,
"MX000002069","1949-07-26",86.90,56.30,0.00,,
"MX000002069","1949-07-27",85.10,56.30,0.00,,
"MX000002069","1949-07-28",84.20,57.20,0.00,,
"MX000002069","1949-07-29",87.80,60.80,0.00,,
"MX000002069","1949-07-30",88.70,60.80,0.00,,
"MX000002069","1949-07-31",91.40,61.70,0.00,,
"MX000002069","1949-08-01",95.00,59.90,0.00,,
"MX000002069","1949-08-02",102.20,62.60,0.00,,
"MX000002069","1949-08-03",99.50,65.30,0.00,,
"MX000002069","1949-08-04",97.70,59.90,0.00,,
"MX000002069","1949-08-05",95.00,59.00,0.00,,
"MX000002069","1949-08-06",95.90,59.90,0.00,,
"MX000002069","1949-08-07",95.90,62.60,0.00,,
"MX000002069","1949-08-08",87.80,62.60,0.00,,
"MX000002069","1949-08-09",77.00,56.30,0.00,,
"MX000002069","1949-08-10",77.90,55.40,0.00,,
"MX000002069","1949-08-11",78.80,50.00,0.00,,
"MX000002069","1949-08-12",85.10,49.10,0.00,,
"MX000002069","1949-08-13",84.20,50.00,0.00,,
"MX000002069","1949-08-14",83.30,53.60,0.00,,
"MX000002069","1949-08-15",84.20,53.60,0.00,,
"MX000002069","1949-08-16",84.20,53.60,0.00,,
"MX000002069","1949-08-17",89.60,49.10,0.00,,
"MX000002069","1949-08-18",92.30,50.90,0.00,,
"MX000002069","1949-08-19",96.80,52.70,0.00,,
"MX000002069","1949-08-20",102.20,57.20,0.00,,
"MX000002069","1949-08-21",100.40,62.60,0.00,,
"MX000002069","1949-08-22",92.30,66.20,0.00,,
"MX000002069","1949-08-23",95.90,59.90,0.00,,
"MX000002069","1949-08-24",98.60,59.00,0.00,,
"MX000002069","1949-08-25",99.50,59.00,0.00,,
"MX000002069","1949-08-26",98.60,59.00,0.00,,
"MX000002069","1949-08-27",98.60,64.40,0.00,,
"MX000002069","1949-08-28",100.40,61.70,0.00,,
"MX000002069","1949-08-29",98.60,62.60,0.00,,
"MX000002069","1949-08-30",82.40,59.90,0.00,,
"MX000002069","1949-08-31",101.30,56.30,0.00,,
"MX000002069","1949-09-01",98.60,58.10,0.00,,
"MX000002069","1949-09-02",94.10,59.00,0.00,,
"MX000002069","1949-09-03",93.20,56.30,0.00,,
"MX000002069","1949-09-04",93.20,53.60,0.00,,
"MX000002069","1949-09-05",95.90,55.40,0.00,,
"MX000002069","1949-09-06",103.10,59.90,0.00,,
"MX000002069","1949-09-07",107.60,63.50,0.00,,
"MX000002069","1949-09-08",99.50,71.60,0.00,,
"MX000002069","1949-09-09",96.80,65.30,0.00,,
"MX000002069","1949-09-10",91.40,61.70,0.00,,
"MX000002069","1949-09-11",86.00,55.40,0.00,,
"MX000002069","1949-09-12",88.70,48.20,0.00,,
"MX000002069","1949-09-13",87.80,53.60,0.00,,
"MX000002069","1949-09-14",86.90,52.70,0.00,,
"MX000002069","1949-09-15",87.80,51.80,0.00,,
"MX000002069","1949-09-16",87.80,53.60,0.00,,
"MX000002069","1949-09-17",84.20,52.70,0.00,,
"MX000002069","1949-09-18",91.40,52.70,0.00,,
"MX000002069","1949-09-19",90.50,58.10,0.00,,
"MX000002069","1949-09-20",87.80,62.60,0.00,,
"MX000002069","1949-09-21",92.30,61.70,0.00,,
"MX000002069","1949-09-22",102.20,60.80,0.00,,
"MX000002069","1949-09-23",106.70,62.60,0.00,,
"MX000002069","1949-09-24",104.90,66.20,0.00,,
"MX000002069","1949-09-25",91.40,55.40,0.00,,
"MX000002069","1949-09-26",81.50,52.70,0.00,,
"MX000002069","1949-09-27",85.10,48.20,0.00,,
"MX000002069","1949-09-28",90.50,49.10,0.00,,
"MX000002069","1949-09-29",97.70,49.10,0.00,,
"MX000002069","1949-09-30",,51.80,0.00,,
"MX000002069","1949-10-01",86.54,49.10,0.00,,
"MX000002069","1949-10-02",84.20,50.00,0.00,,
"MX000002069","1949-10-03",80.60,50.90,0.00,,
"MX000002069","1949-10-04",79.70,50.90,0.00,,
"MX000002069","1949-10-05",85.10,51.80,0.00,,
"MX000002069","1949-10-06",82.40,51.80,0.00,,
"MX000002069","1949-10-07",72.50,56.30,0.00,,
"MX000002069","1949-10-08",66.20,50.90,21.00,,
"MX000002069","1949-10-09",69.80,42.80,0.00,,
"MX000002069","1949-10-10",77.54,41.72,0.00,,
"MX000002069","1949-10-11",90.50,45.50,0.00,,
"MX000002069","1949-10-12",88.70,49.10,0.00,,
"MX000002069","1949-10-13",89.60,48.92,0.00,,
"MX000002069","1949-10-14",81.50,49.64,0.00,,
"MX000002069","1949-10-15",89.60,50.00,0.00,,
"MX000002069","1949-10-16",64.40,56.30,0.00,,
"MX000002069","1949-10-17",64.40,59.00,0.00,,
"MX000002069","1949-10-18",61.34,56.30,63.00,,
"MX000002069","1949-10-19",59.00,46.40,0.00,,
"MX000002069","1949-10-20",66.74,37.94,0.00,,
"MX000002069","1949-10-21",69.80,40.46,0.00,,
"MX000002069","1949-10-22",77.72,47.48,0.00,,
"MX000002069","1949-10-23",77.54,38.66,0.00,,
"MX000002069","1949-10-24",84.20,40.10,0.00,,
"MX000002069","1949-10-25",86.54,44.60,0.00,,
"MX000002069","1949-10-26",87.26,44.60,0.00,,
"MX000002069","1949-10-27",85.28,41.90,0.00,,
"MX000002069","1949-10-28",90.14,41.36,0.00,,
"MX000002069","1949-10-29",93.20,45.50,0.00,,
"MX000002069","1949-10-30",93.20,45.86,0.00,,
"MX000002069","1949-10-31",87.08,45.50,0.00,,
"MX000002069","1949-12-01",88.70,41.36,0.00,,
"MX000002069","1949-12-02",88.70,43.34,0.00,,
"MX000002069","1949-12-03",83.12,38.30,0.00,,
"MX000002069","1949-12-04",84.20,45.50,0.00,,
"MX000002069","1949-12-05",78.44,39.20,0.00,,
"MX000002069","1949-12-06",70.88,34.34,0.00,,
"MX000002069","1949-12-07",68.00,41.90,72.00,,
"MX000002069","1949-12-08",57.20,43.16,92.00,,
"MX000002069","1949-12-09",66.92,46.40,42.00,,
"MX000002069","1949-12-10",54.50,50.00,0.00,,
"MX000002069","1949-12-11",53.96,36.14,0.00,,
"MX000002069","1949-12-12",51.80,38.30,0.00,,
"MX000002069","1949-12-13",63.14,35.60,0.00,,
"MX000002069","1949-12-14",62.42,46.40,0.00,,
"MX000002069","1949-12-15",64.94,36.68,0.00,,
"MX000002069","1949-12-16",56.84,46.40,25.00,,
"MX000002069","1949-12-17",61.16,42.80,0.00,,
"MX000002069","1949-12-18",61.70,40.64,15.00,,
"MX000002069","1949-12-19",57.56,42.80,72.00,,
"MX000002069","1949-12-20",51.80,42.44,0.00,,
"MX000002069","1949-12-21",59.36,26.60,0.00,,
"MX000002069","1949-12-22",64.04,,0.00,,
"MX000002069","1949-12-23",71.60,41.00,0.00,,
"MX000002069","1949-12-24",77.00,41.00,0.00,,
"MX000002069","1949-12-25",61.70,40.10,0.00,,
"MX000002069","1949-12-26",70.16,37.40,0.00,,
"MX000002069","1949-12-27",73.04,46.04,0.00,,
"MX000002069","1949-12-28",77.00,46.76,0.00,,
"MX000002069","1949-12-29",76.64,36.50,0.00,,
"MX000002069","1949-12-30",71.60,,0.00,,
"MX000002069","1949-12-31",77.90,37.40,0.00,,
"MX000002069","1950-01-01",60.62,40.10,0.00,,
"MX000002069","1950-01-02",56.12,42.80,22.00,,
"MX000002069","1950-01-03",53.42,37.40,0.00,,
"MX000002069","1950-01-04",54.32,30.20,0.00,,
"MX000002069","1950-01-05",52.70,,0.00,,
"MX000002069","1950-01-06",57.56,33.80,0.00,,
"MX000002069","1950-01-07",64.76,,0.00,,
"MX000002069","1950-01-08",57.56,36.50,92.00,,
"MX000002069","1950-01-09",55.40,39.20,0.00,,
"MX000002069","1950-01-10",59.90,,0.00,,
"MX000002069","1950-01-11",55.40,28.40,62.00,,
"MX000002069","1950-01-12",53.60,33.80,46.00,,
"MX000002069","1950-01-13",53.42,35.24,0.00,,
"MX000002069","1950-01-14",50.00,36.50,0.00,,
"MX000002069","1950-01-15",59.00,41.36,0.00,,
"MX000002069","1950-01-16",63.50,30.20,0.00,,
"MX000002069","1950-01-17",69.80,36.50,0.00,,
"MX000002069","1950-01-18",74.30,38.66,0.00,,
"MX000002069","1950-01-19",77.36,39.56,0.00,,
"MX000002069","1950-01-20",81.50,53.24,0.00,,
"MX000002069","1950-01-21",76.10,42.80,0.00,,
"MX000002069","1950-01-22",77.00,44.60,0.00,,
"MX000002069","1950-01-23",73.76,41.00,0.00,,
"MX000002069","1950-01-24",55.40,46.40,0.00,,
"MX000002069","1950-01-25",52.70,41.36,0.00,,
"MX000002069","1950-01-26",62.24,27.50,0.00,,
"MX000002069","1950-01-27",65.84,24.44,0.00,,
"MX000002069","1950-01-28",61.16,27.50,22.00,,
"MX000002069","1950-01-29",53.96,39.20,0.00,,
"MX000002069","1950-01-30",56.84,39.20,0.00,,
"MX000002069","1950-01-31",56.66,30.20,0.00,,
"MX000002069","1950-02-01",61.70,28.04,0.00,,
"MX000002069","1950-02-02",70.16,35.60,0.00,,
"MX000002069","1950-02-03",75.20,40.10,0.00,,
"MX000002069","1950-02-04",72.50,38.30,0.00,,
"MX000002069","1950-02-05",75.20,37.40,0.00,,
"MX000002069","1950-02-06",68.90,44.42,65.00,,
"MX000002069","1950-02-07",62.60,53.24,0.00,,
"MX000002069","1950-02-08",65.30,34.70,0.00,,
"MX000002069","1950-02-09",71.60,33.80,0.00,,
"MX000002069","1950-02-10",66.74,40.64,34.00,,
"MX000002069","1950-02-11",59.54,48.56,0.00,,
"MX000002069","1950-02-12",70.16,35.42,0.00,,
"MX000002069","1950-02-13",73.40,41.36,0.00,,
"MX000002069","1950-02-14",74.30,35.96,0.00,,
"MX000002069","1950-02-15",82.04,40.10,0.00,,
"MX000002069","1950-02-16",80.96,41.90,0.00,,
"MX000002069","1950-02-17",78.80,37.76,0.00,,
"MX000002069","1950-02-18",78.80,38.84,0.00,,
"MX000002069","1950-02-19",77.90,39.20,0.00,,
"MX000002069","1950-02-20",67.64,38.30,0.00,,
"MX000002069","1950-02-21",65.30,47.30,0.00,,
"MX000002069","1950-02-22",73.22,,0.00,,
"MX000002069","1950-02-23",68.36,35.24,0.00,,
"MX000002069","1950-02-24",71.60,39.20,0.00,,
"MX000002069","1950-02-25",85.10,37.76,0.00,,
"MX000002069","1950-02-26",58.10,41.36,42.00,,
"MX000002069","1950-02-27",66.56,47.30,0.00,,
"MX000002069","1950-02-28",77.00,39.20,0.00,,
"MX000002069","1950-03-01",62.24,47.30,12.00,,
"MX000002069","1950-03-02",64.76,48.20,0.00,,
"MX000002069","1950-03-03",73.40,50.00,0.00,,
"MX000002069","1950-03-04",83.30,38.30,0.00,,
"MX000002069","1950-03-05",77.00,41.36,0.00,,
"MX000002069","1950-03-06",71.60,42.80,0.00,,
"MX000002069","1950-03-07",77.36,38.30,0.00,,
"MX000002069","1950-03-08",77.90,43.70,0.00,,
"MX000002069","1950-03-09",72.50,39.20,0.00,,
"MX000002069","1950-03-10",68.36,38.30,0.00,,
"MX000002069","1950-03-11",64.76,39.02,0.00,,
"MX000002069","1950-03-12",65.30,38.84,0.00,,
"MX000002069","1950-03-13",73.76,43.34,0.00,,
"MX000002069","1950-03-14",66.20,33.80,0.00,,
"MX000002069","1950-03-15",74.30,40.10,0.00,,
"MX000002069","1950-03-16",72.50,42.80,0.00,,
"MX000002069","1950-03-17",72.50,37.04,0.00,,
"MX000002069","1950-03-18",77.00,37.40,0.00,,
"MX000002069","1950-03-19",77.00,41.00,0.00,,
"MX000002069","1950-03-20",75.56,46.04,0.00,,
"MX000002069","1950-03-21",85.10,42.80,0.00,,
"MX000002069","1950-03-22",79.16,42.80,0.00,,
"MX000002069","1950-03-23",74.30,42.44,0.00,,
"MX000002069","1950-03-24",70.16,47.30,103.00,,
"MX000002069","1950-03-25",61.70,45.50,72.00,,
"MX000002069","1950-03-26",56.84,41.36,0.00,,
"MX000002069","1950-03-27",62.96,48.20,0.00,,
"MX000002069","1950-03-28",77.00,40.10,0.00,,
"MX000002069","1950-03-29",89.24,48.20,0.00,,
"MX000002069","1950-03-30",83.84,52.70,0.00,,
"MX000002069","1950-03-31",84.20,48.20,0.00,,
"MX000002069","1950-04-01",83.30,49.10,0.00,,
"MX000002069","1950-04-02",85.82,46.04,0.00,,
"MX000002069","1950-04-03",84.20,47.30,0.00,,
"MX000002069","1950-04-04",77.00,46.04,0.00,,
"MX000002069","1950-04-05",84.02,53.24,0.00,,
"MX000002069","1950-04-06",80.24,46.40,0.00,,
"MX000002069","1950-04-07",68.36,46.40,0.00,,
"MX000002069","1950-04-08",68.00,47.84,27.00,,
"MX000002069","1950-04-09",60.80,46.40,0.00,,
"MX000002069","1950-04-10",75.20,36.50,0.00,,
"MX000002069","1950-04-11",77.00,41.36,0.00,,
"MX000002069","1950-04-12",80.60,41.36,0.00,,
"MX000002069","1950-04-13",76.10,41.00,0.00,,
"MX000002069","1950-04-14",72.50,48.02,0.00,,
"MX000002069","1950-04-15",85.82,41.00,0.00,,
"MX000002069","1950-04-16",89.42,44.24,0.00,,
"MX000002069","1950-04-17",89.96,49.10,0.00,,
"MX000002069","1950-04-18",92.30,49.64,0.00,,
"MX000002069","1950-04-19",90.50,46.40,0.00,,
"MX000002069","1950-04-20",85.82,46.40,0.00,,
"MX000002069","1950-04-21",74.84,51.80,0.00,,
"MX000002069","1950-04-22",75.20,56.30,0.00,,
"MX000002069","1950-04-23",66.20,55.40,0.00,,
"MX000002069","1950-04-24",71.60,54.50,0.00,,
"MX000002069","1950-04-25",73.40,56.84,0.00,,
"MX000002069","1950-04-26",69.80,48.20,0.00,,
"MX000002069","1950-04-27",66.20,56.30,0.00,,
"MX000002069","1950-04-28",66.20,53.60,0.00,,
"MX000002069","1950-04-29",69.44,52.70,0.00,,
"MX000002069","1950-04-30",68.00,54.50,0.00,,
"MX000002069","1950-05-01",73.40,50.00,0.00,,
"MX000002069","1950-05-02",64.22,47.30,0.00,,
"MX000002069","1950-05-03",61.70,49.10,42.00,,
"MX000002069","1950-05-04",61.70,44.60,0.00,,
"MX000002069","1950-05-05",77.00,39.02,0.00,,
"MX000002069","1950-05-06",75.56,41.90,0.00,,
"MX000002069","1950-05-07",70.34,42.44,0.00,,
"MX000002069","1950-05-08",76.82,40.64,0.00,,
"MX000002069","1950-05-09",84.20,42.80,0.00,,
"MX000002069","1950-05-10",89.60,46.22,0.00,,
"MX000002069","1950-05-11",88.70,48.20,0.00,,
"MX000002069","1950-05-12",82.94,47.66,0.00,,
"MX000002069","1950-05-13",73.76,42.80,0.00,,
"MX000002069","1950-05-14",75.20,52.16,0.00,,
"MX000002069","1950-05-15",76.64,53.60,0.00,,
"MX000002069","1950-05-16",68.90,54.50,0.00,,
"MX000002069","1950-05-17",72.50,53.60,0.00,,
"MX000002069","1950-05-18",75.20,51.80,0.00,,
"MX000002069","1950-05-19",77.00,48.20,0.00,,
"MX000002069","1950-05-20",81.50,43.16,0.00,,
"MX000002069","1950-05-21",77.90,51.80,0.00,,
"MX000002069","1950-05-22",69.44,57.20,0.00,,
"MX000002069","1950-05-23",70.70,55.40,0.00,,
"MX000002069","1950-05-24",70.70,55.04,0.00,,
"MX000002069","1950-05-25",76.82,44.96,0.00,,
"MX000002069","1950-05-26",83.30,50.00,0.00,,
"MX000002069","1950-05-27",77.36,51.80,0.00,,
"MX000002069","1950-05-28",87.80,49.10,0.00,,
"MX000002069","1950-05-29",89.24,48.20,0.00,,
"MX000002069","1950-05-30",85.10,49.10,0.00,,
"MX000002069","1950-05-31",84.02,50.90,0.00,,
"MX000002069","1950-06-01",82.76,57.20,0.00,,
"MX000002069","1950-06-02",81.14,59.00,0.00,,
"MX000002069","1950-06-03",80.60,55.22,0.00,,
"MX000002069","1950-06-04",87.80,50.00,0.00,,
"MX000002069","1950-06-05",80.60,51.80,0.00,,
"MX000002069","1950-06-06",68.90,58.64,0.00,,
"MX000002069","1950-06-07",75.56,47.30,0.00,,
"MX000002069","1950-06-08",87.80,46.04,0.00,,
"MX000002069","1950-06-09",89.24,47.84,0.00,,
"MX000002069","1950-06-10",88.16,46.76,0.00,,
"MX000002069","1950-06-11",81.50,50.00,0.00,,
"MX000002069","1950-06-12",80.24,48.20,0.00,,
"MX000002069","1950-06-13",74.30,50.90,0.00,,
"MX000002069","1950-06-14",79.70,46.22,0.00,,
"MX000002069","1950-06-15",78.62,53.24,0.00,,
"MX000002069","1950-06-16",77.90,51.80,0.00,,
"MX000002069","1950-06-17",79.70,53.96,0.00,,
"MX000002069","1950-06-18",86.54,50.36,0.00,,
"MX000002069","1950-06-19",86.00,50.00,0.00,,
"MX000002069","1950-06-20",87.80,50.00,0.00,,
"MX000002069","1950-06-21",85.64,48.20,0.00,,
"MX000002069","1950-06-22",79.16,53.42,0.00,,
"MX000002069","1950-06-23",76.64,56.84,0.00,,
"MX000002069","1950-06-24",76.10,57.02,0.00,,
"MX000002069","1950-06-25",85.10,48.56,0.00,,
"MX000002069","1950-06-26",84.02,50.36,0.00,,
"MX000002069","1950-06-27",101.30,50.90,0.00,,
"MX000002069","1950-06-28",104.00,50.00,0.00,,